Location: Austin
(30.3000°N, 97.7500°W)
Time: 02:53:07
(UTC-05:00)

ACS3 Solar Sail - Pass Details

Date: 01 October 2024
Orbit: 962 x 1035 km, 97.4° (Epoch: 07 October)

Event Time Altitude Azimuth Distance (km) Brightness Sun altitude
Exits shadow 21:39:04 55° 7° (N) 1,231 2.2 -31.5°
Drops below altitude 10° 21:43:58 10° 352° (N) 2,828 4.4 -32.6°
Sets 21:46:28 0° 351° (N) 3,776 5.2 -33.1°
